Location: Melbourne
(37.8120°S, 144.9677°E)
Time: 04:28:49
(UTC+10:00)

ISS - Visible Passes

Search period start: 14 August 2022 00:00
Search period end: 24 August 2022 00:00
Orbit: 412 x 420 km, 51.6° (Epoch: 13 August)

Date Brightness Start Highest point End Pass type
(mag) Time Alt. Az. Time Alt. Az. Time Alt. Az.
15 Aug -1.3 19:48:47 10° NW 19:49:47 18° NW 19:49:47 18° NW visible
16 Aug -2.9 19:00:37 10° NNW 19:03:39 31° NE 19:03:53 31° NE visible
17 Aug -1.9 18:12:54 10° N 18:15:14 18° NE 18:17:35 10° E visible
17 Aug -2.1 19:48:26 10° WNW 19:50:48 35° WSW 19:50:48 35° WSW visible
18 Aug -3.7 18:59:42 10° NW 19:03:05 80° SW 19:04:40 30° SE visible
19 Aug -3.5 18:11:14 10° NW 18:14:32 54° NE 18:17:52 10° ESE visible
19 Aug -1.5 19:48:50 10° WSW 19:51:20 20° SSW 19:51:20 20° SSW visible
20 Aug -2.1 18:59:40 10° W 19:02:42 30° SSW 19:04:59 15° SSE visible
21 Aug -0.9 19:49:55 10° SW 19:51:24 12° SSW 19:51:27 12° SSW visible
22 Aug -1.2 19:00:19 10° WSW 19:02:29 16° SSW 19:04:42 10° SSE visible
